Regional Weather Roundup
Issued by NWS Charleston, SC

Current Version | Previous Version | Graphics & Text | Print | Product List | Glossary On
Versions: 1 2 3 4 5 6 7 8 9 10 11 12 13 14 15 16 17 18 19 20 21 22 23 24 25 26 27 28 29 30 31 32 33 34 35 36 37 38 39 40 41 42 43 44 45 46 47 48 49 50
000
ASUS42 KCHS 180226
RWRCHS

REGIONAL WEATHER ROUNDUP
NATIONAL WEATHER SERVICE CHARLESTON SC
1000 PM EDT FRI APR 17 2015

NOTE: "FAIR" INDICATES FEW OR NO CLOUDS BELOW 12,000 FEET WITH NO
SIGNIFICANT WEATHER AND/OR OBSTRUCTIONS TO VISIBILITY.

NOT ALL STATIONS ARE QUALITY CONTROLLED BY THE NATIONAL
WEATHER SERVICE. USE DATA WITH CAUTION...ESPECIALLY
DEWPOINT OBSERVATIONS.

SCZ027-030-031-034>040-042>050-180300-
...SOUTHEAST SOUTH CAROLINA...

CITY           SKY/WX    TMP DP  RH WIND       PRES   REMARKS
N CHARLESTON   LGT RAIN  70  67  90 CALM      30.02R
WATERFRONT PRK   N/A     70 N/A N/A N3          N/A
MOUNT PLEASANT DRIZZLE   70  68  94 CALM      30.02R
PINOPOLIS      NOT AVBL
MONCKS CORNER  LGT RAIN  68  66  94 CALM      30.02S
SUMMERVILLE    RAIN      68  68 100 CALM      30.03S
BEAUFORT MCAS  CLOUDY    70  67  90 CALM      30.02S
BEAUFORT ARPT  MOCLDY    70  68  94 CALM      30.02R
HILTON HEAD IS CLOUDY    70  70 100 CALM      30.04R
WALTERBORO     DRIZZLE   68  66  94 NE3       30.03S
ALLENDALE      CLOUDY    68  68 100 CALM      30.02R

...SOUTHERN MIDLANDS AND PEE DEE...

CITY           SKY/WX    TMP DP  RH WIND       PRES   REMARKS
GEORGETOWN     NOT AVBL
KINGSTREE      NOT AVBL
ORANGEBURG     LGT RAIN  67  65  93 CALM      30.03R FOG
BARNWELL       CLOUDY    68  66  94 CALM      30.03S
AIKEN          LGT RAIN  63  63 100 CALM      30.07R
MANNING        LGT RAIN  64  63  94 CALM      30.03R
COLUMBIA       LGT RAIN  68  64  87 CALM      30.02R
SUMTER         LGT RAIN  66  64  94 SW2       30.02R
FLORENCE       CLOUDY    68  65  90 S3        30.02R
MYRTLE BEACH   NOT AVBL
N MYRTLE BEACH CLOUDY    68  67  96 CALM      30.02R

$$

GAZ063-065-086>088-099>101-113>116-118-119-134>141-150-180300-
...SOUTHEAST GEORGIA...

CITY           SKY/WX    TMP DP  RH WIND       PRES   REMARKS
SAVANNAH ARPT  LGT RAIN  69  66  90 CALM      30.01S
HUNTER AAF     CLOUDY    69  69 100 CALM      29.99F
FORT STEWART   CLOUDY    68  66  93 CALM      30.00R
STATESBORO       N/A     66  66 100 CALM      30.02R FOG
SYLVANIA       RAIN      66  66 100 CALM      30.03S
CLAXTON        CLOUDY    66  66 100 CALM      30.02S

...CSRA...CENTRAL AND FAR SOUTHEAST GEORGIA...

CITY           SKY/WX    TMP DP  RH WIND       PRES   REMARKS
THOMSON        CLOUDY    66  66 100 CALM      30.08S
AUGUSTA-BUSH   CLOUDY    66  65  96 CALM      30.03R FOG
AUGUSTA-DANIEL CLOUDY    67  64  90 CALM      30.04R
SWAINSBORO     CLOUDY    68  68 100 CALM      30.03S
VIDALIA        RAIN      68  66  94 E5        30.02S
EASTMAN        RAIN      67  67 100 CALM      30.04S
HAZLEHURST     LGT RAIN  69  69 100 CALM      30.00S
ALMA           CLOUDY    69  67  93 CALM      30.01R
WAYCROSS       CLOUDY    74  71  90 S3        30.02R
JESUP          CLOUDY    72  70  94 CALM      30.02S
BAXLEY         CLOUDY    70  68  94 SE3       30.00F
BRUNSWICK      CLOUDY    70  66  88 SE3       30.02F
SAINT SIMONS   CLOUDY    68  66  93 E3        30.02R

$$

SCZ027-028-034-036>038-045-046-048>050-GAZ119-141-180300-
...LAKE AND SUPPLEMENTAL COASTAL OBSERVATIONS...

STATION/POSITION TIME  TEMP    WIND        PRES    WAVE   SWELL
                       AIR SEA DIR/SP/G            HT/PER HT/PER/DIR
                 (UTC) (F)     (DEG/KT/KT) (MB)    (FT/S) (FT/S/D)
UPR LAKE MARION  NOT AVBL
WINYAH BAY       0100   68        CALM     1015.0
LAKE MURRAY      0100   66     330/  1/  4 1016.3R
ACE BASIN NERRS  NOT AVBL
FORT PULASKI     0200   70 70   CALM  /  1 1017.0R
SAPELO ISLAND    0200   68     150/  3     1016.0S

$$

ANZ835-935-AMZ111-154-330-350-352-354-370-450-454-472-180300-
...C-MAN AND BUOY OBSERVATIONS...

STATION/POSITION TIME  TEMP    WIND        PRES    WAVE   SWELL
                       AIR SEA DIR/SP/G            HT/PER HT/PER/DIR
                 (UTC) (F)     (DEG/KT/KT) (MB)    (FT/S) (FT/S/D)
BUOY 41004       0150   71 75   10/ 12/ 12 1015.2R   4/ 8   3/ 8
BUOY 41008       0150   66 67  220/  4/  6 1016.7R   2/11   2/ 80/11
FOLLY BEACH CMAN 0200   68      CALM  /  1 1016.4R
CAPERS NEARSHORE NOT AVBL
FRIPP NEARSHORE  0100   68     330/  4/  6 1015.7R


STATION/POSITION TIME  TEMP    WIND        PRES    WAVE   SWELL
                       AIR SEA DIR/SP/G            HT/PER HT/PER/DIR
                 (UTC) (F)     (DEG/KT/KT) (MB)    (FT/S) (FT/S/D)
5E ST. MARYS GA  0121      69                N/A     2/11   2/ 80/11
FRYING PAN BUOY  0150   74 74   90/  8/ 10 1016.0R   5/ 8   5/100/ 8
BUOY 41025       0050   72 75  140/  4/  8 1016.0    6/10   5/ 70/10
CAPE LOOKOUT NC  0200   69     110/  4/  4 1016.2R
BUOY 41002       0150   72 72  100/  2/  6 1016.0R   6/10   7/ 60/10
BUOY 41010       0120   76 79  110/  4/  6 1016.4R
ST AUGUSTINE FL  0200   69 69   60/  2/  2 1017.0R


$$


USA.gov is the U.S. government's official web portal to all federal, state and local government web resources and services.